KS4XQ Weather Reports


Display with metric or nautical units.
time (UTC)temp
F
wind
direction
speed
MPH
gust
MPH
rain 1hr
in
rain 24hr
in
rain mn
in
humidity
%
barometer
mb
20260506195501 76 310 3.0 7.0 0.00 0.01 0.01 72 1013.5
20260506195001 77 272 3.0 7.0 0.00 0.01 0.01 71 1013.5
20260506194502 77 227 2.0 8.0 0.00 0.01 0.01 71 1013.4
20260506194002 77 282 2.0 8.0 0.00 0.01 0.01 71 1013.3
20260506193501 77 239 2.0 10.0 0.00 0.01 0.01 71 1013.5
20260506192501 77 276 2.0 5.0 0.00 0.01 0.01 73 1013.8
20260506192003 77 331 3.0 10.0 0.00 0.01 0.01 72 1013.8
20260506191500 76 290 3.0 9.0 0.00 0.01 0.01 73 1013.9
20260506191001 77 5 5.0 13.0 0.00 0.01 0.01 71 1014.0
20260506190503 76 241 4.0 12.0 0.00 0.01 0.01 72 1014.2
20260506190006 76 299 4.0 12.0 0.00 0.01 0.01 74 1014.1
20260506185501 75 275 4.0 13.0 0.00 0.01 0.01 78 1014.1
20260506184502 75 282 4.0 11.0 0.00 0.01 0.01 75 1014.1
20260506184003 75 231 4.0 11.0 0.00 0.01 0.01 76 1014.0
20260506183502 74 294 3.0 10.0 0.00 0.01 0.01 77 1014.2
20260506183001 73 265 2.0 10.0 0.00 0.01 0.01 81 1014.2
20260506182501 72 275 2.0 10.0 0.00 0.01 0.01 82 1014.1
20260506182003 72 295 2.0 8.0 0.00 0.01 0.01 83 1013.9
20260506181502 72 207 2.0 9.0 0.00 0.01 0.01 82 1014.0
20260506180501 72 283 3.0 8.0 0.00 0.01 0.01 83 1014.0
20260506180006 72 317 2.0 8.0 0.00 0.01 0.01 84 1013.8
20260506175501 71 281 2.0 6.0 0.01 0.01 0.01 82 1013.9
20260506174501 71 309 2.0 7.0 0.01 0.01 0.01 87 1013.8
20260506173501 70 273 1.0 5.0 0.01 0.01 0.01 85 1014.2
20260506173004 70 293 1.0 4.0 0.01 0.01 0.01 89 1014.4
20260506172001 69 236 1.0 4.0 0.01 0.01 0.01 88 1014.6
20260506171003 69 168 0.0 2.0 0.01 0.01 0.01 90 1014.8
20260506170502 69 101 1.0 2.0 0.01 0.01 0.01 87 1014.6
20260506170005 69 89 1.0 4.0 0.01 0.01 0.01 87 1014.8
20260506165501 69 90 2.0 6.0 0.00 0.00 0.00 85 1015.0
20260506164501 69 273 1.0 4.0 0.00 0.00 0.00 82 1015.6
20260506164002 69 273 2.0 9.0 0.00 0.00 0.00 81 1015.6
20260506163502 69 270 2.0 9.0 0.00 0.00 0.00 80 1015.9
20260506162502 70 22 1.0 4.0 0.00 0.00 0.00 79 1015.7
20260506162002 70 291 2.0 5.0 0.00 0.00 0.00 79 1015.8
20260506161502 70 283 3.0 8.0 0.00 0.00 0.00 79 1015.7
20260506160503 70 294 1.0 3.0 0.00 0.00 0.00 80 1015.7
20260506160003 70 273 1.0 4.0 0.00 0.00 0.00 81 1015.2
20260506155500 70 253 1.0 4.0 0.00 0.00 0.00 79 1015.0
20260506155002 70 317 2.0 7.0 0.00 0.00 0.00 78 1015.4
20260506154000 70 338 1.0 8.0 0.00 0.00 0.00 78 1015.2
20260506153500 70 270 1.0 3.0 0.00 0.00 0.00 79 1015.3
20260506153002 69 184 1.0 3.0 0.00 0.00 0.00 78 1015.3
20260506152500 69 355 1.0 4.0 0.00 0.00 0.00 78 1015.2
20260506152000 69 238 2.0 8.0 0.00 0.00 0.00 79 1015.2
20260506151500 69 297 2.0 8.0 0.00 0.00 0.00 78 1015.4
20260506151002 69 316 2.0 8.0 0.00 0.00 0.00 78 1015.0
20260506145502 68 272 3.0 7.0 0.00 0.00 0.00 77 1015.1
20260506145003 68 290 2.0 7.0 0.00 0.00 0.00 77 1014.9
20260506144501 68 302 2.0 8.0 0.00 0.00 0.00 76 1014.9
20260506144002 69 296 2.0 8.0 0.00 0.00 0.00 76 1014.8
20260506143501 69 236 1.0 4.0 0.00 0.00 0.00 76 1014.8
20260506142501 68 276 3.0 8.0 0.00 0.00 0.00 76 1014.6
20260506142004 68 308 3.0 8.0 0.00 0.00 0.00 76 1014.3
20260506141501 68 284 3.0 6.0 0.00 0.00 0.00 77 1014.3
20260506140503 68 259 2.0 8.0 0.00 0.00 0.00 77 1014.3
20260506140002 68 289 2.0 8.0 0.00 0.00 0.00 78 1014.3
20260506135500 67 286 3.0 6.0 0.00 0.00 0.00 78 1014.3
20260506135002 67 277 3.0 8.0 0.00 0.00 0.00 77 1014.4
20260506134500 67 298 3.0 9.0 0.00 0.00 0.00 78 1014.4
20260506134000 67 281 1.0 9.0 0.00 0.00 0.00 79 1014.5
20260506133503 67 314 1.0 3.0 0.00 0.00 0.00 79 1014.2
20260506132500 66 309 2.0 5.0 0.00 0.00 0.00 80 1014.4
20260506132002 66 167 2.0 7.0 0.00 0.00 0.00 80 1014.4
20260506131500 65 322 1.0 4.0 0.00 0.00 0.00 82 1014.6
20260506131000 65 267 1.0 4.0 0.00 0.00 0.00 83 1014.5
20260506130500 64 282 1.0 2.0 0.00 0.00 0.00 84 1014.6
20260506130007 64 185 0.0 2.0 0.00 0.00 0.00 84 1014.6
20260506125501 64 261 0.0 2.0 0.00 0.00 0.00 84 1014.7
20260506125001 63 246 0.0 2.0 0.00 0.00 0.00 84 1014.6
20260506124001 63 277 0.0 2.0 0.00 0.00 0.00 84 1014.7
20260506122501 63 237 0.0 1.0 0.00 0.00 0.00 85 1014.4
20260506122001 63 237 0.0 2.0 0.00 0.00 0.00 85 1014.1
20260506121501 63 237 0.0 0.0 0.00 0.00 0.00 85 1013.9
20260506121003 63 237 0.0 0.0 0.00 0.00 0.00 85 1014.1
20260506120501 62 237 0.0 0.0 0.00 0.00 0.00 85 1014.3
20260506120004 62 237 0.0 0.0 0.00 0.00 0.00 84 1014.3
20260506115501 62 237 0.0 0.0 0.00 0.00 0.00 84 1014.3
20260506115003 62 237 0.0 0.0 0.00 0.00 0.00 84 1014.3
20260506114501 62 237 0.0 0.0 0.00 0.00 0.00 83 1014.3
20260506114001 62 237 0.0 0.0 0.00 0.00 0.00 83 1014.3
20260506113502 62 237 0.0 0.0 0.00 0.00 0.00 84 1014.4
20260506113003 62 237 0.0 0.0 0.00 0.00 0.00 82 1014.4
20260506112501 62 237 0.0 0.0 0.00 0.00 0.00 82 1014.2
20260506112001 63 237 0.0 0.0 0.00 0.00 0.00 83 1014.3
20260506110501 63 237 0.0 1.0 0.00 0.00 0.00 81 1013.9
20260506110002 63 237 0.0 1.0 0.00 0.00 0.00 81 1013.9
20260506105500 63 237 0.0 0.0 0.00 0.00 0.00 80 1013.7
20260506105001 63 237 0.0 1.0 0.00 0.00 0.00 80 1013.6
20260506104500 63 237 0.0 1.0 0.00 0.00 0.00 80 1013.5
20260506103500 63 196 0.0 1.0 0.00 0.00 0.00 80 1013.5
20260506103002 63 196 0.0 1.0 0.00 0.00 0.00 80 1013.5
20260506102500 63 196 0.0 2.0 0.00 0.00 0.00 80 1013.4
20260506102000 63 175 0.0 3.0 0.00 0.00 0.00 80 1013.2
20260506101500 63 173 1.0 3.0 0.00 0.00 0.00 79 1013.2
20260506101003 63 137 0.0 2.0 0.00 0.00 0.00 79 1013.2
20260506100500 63 278 0.0 1.0 0.00 0.00 0.00 79 1013.1
20260506100004 63 271 0.0 2.0 0.00 0.00 0.00 79 1013.0
20260506095500 63 195 1.0 4.0 0.00 0.00 0.00 78 1012.7
20260506094502 64 192 1.0 3.0 0.00 0.00 0.00 78 1012.9
20260506094000 64 123 1.0 3.0 0.00 0.00 0.00 78 1012.9
20260506093500 64 190 1.0 4.0 0.00 0.00 0.00 78 1013.0
20260506093000 64 205 0.0 2.0 0.00 0.00 0.00 78 1013.0
20260506092502 64 213 1.0 2.0 0.00 0.00 0.00 78 1013.0
20260506092002 64 185 1.0 2.0 0.00 0.00 0.00 78 1013.2
20260506091500 64 195 1.0 2.0 0.00 0.00 0.00 78 1013.1
20260506091000 64 190 1.0 3.0 0.00 0.00 0.00 77 1013.3
20260506090004 64 155 1.0 3.0 0.00 0.00 0.00 77 1013.2
20260506085500 64 165 1.0 5.0 0.00 0.00 0.00 77 1013.2
20260506085000 64 251 1.0 4.0 0.00 0.00 0.00 77 1013.2
20260506084002 64 215 1.0 3.0 0.00 0.00 0.00 76 1013.2
20260506083500 64 194 1.0 3.0 0.00 0.00 0.00 76 1013.4
20260506083000 64 294 1.0 3.0 0.00 0.00 0.00 76 1013.4
20260506082001 64 149 1.0 3.0 0.00 0.00 0.00 76 1013.6
20260506081501 64 142 1.0 3.0 0.00 0.00 0.00 75 1013.6
20260506081001 64 177 1.0 4.0 0.00 0.00 0.00 75 1013.5
20260506080500 64 175 1.0 5.0 0.00 0.00 0.00 75 1013.5
20260506073501 64 123 1.0 8.0 0.00 0.00 0.00 74 1013.6
20260506073002 64 187 1.0 8.0 0.00 0.00 0.00 73 1013.6
20260506072501 65 267 1.0 7.0 0.00 0.00 0.00 73 1013.5
20260506072001 65 189 1.0 4.0 0.00 0.00 0.00 73 1013.5
20260506071501 65 169 1.0 3.0 0.00 0.00 0.00 72 1013.5
20260506070500 65 186 1.0 5.0 0.00 0.00 0.00 72 1013.5
20260506062502 65 162 0.0 3.0 0.00 0.00 0.00 69 1013.8
20260506062000 64 154 1.0 3.0 0.00 0.00 0.00 69 1013.7
20260506061501 64 182 1.0 4.0 0.00 0.00 0.00 69 1013.7
20260506061000 64 208 1.0 4.0 0.00 0.00 0.00 70 1013.5
20260506060502 64 182 1.0 3.0 0.00 0.00 0.00 70 1013.4
20260506051001 63 284 0.0 0.0 0.00 0.00 0.00 74 1013.5
20260506050500 63 284 0.0 1.0 0.00 0.00 0.00 75 1013.5
20260506045000 63 284 0.0 0.0 0.00 0.00 0.00 73 1014.0
20260506044500 63 284 0.0 0.0 0.00 0.00 0.00 74 1013.8
20260506043500 63 284 0.0 0.0 0.00 0.00 0.00 71 1013.8
20260506043000 63 284 0.0 0.0 0.00 0.00 0.00 72 1013.7
20260506042500 63 284 0.0 0.0 0.00 0.00 0.00 71 1013.8
20260506041500 63 284 0.0 2.0 0.00 0.00 0.00 71 1013.9
20260506041002 63 256 0.0 1.0 0.00 0.00 0.00 72 1013.8
20260506040500 63 247 0.0 0.0 0.00 0.00 0.00 70 1013.7
20260506040009 63 248 0.0 1.0 0.00 0.00 0.00 71 1013.6
20260506035502 63 247 0.0 1.0 0.00 0.00 0.00 70 1013.5
20260506035004 63 247 0.0 0.0 0.00 0.00 0.00 69 1013.7
20260506034502 63 247 0.0 1.0 0.00 0.00 0.00 69 1013.6
20260506033503 64 247 0.0 1.0 0.00 0.00 0.00 68 1013.6
20260506033002 64 247 0.0 1.0 0.00 0.00 0.00 67 1013.6
20260506032501 64 247 0.0 1.0 0.00 0.00 0.00 67 1013.6
20260506032004 64 259 0.0 0.0 0.00 0.00 0.00 67 1013.7
20260506031503 65 259 0.0 0.0 0.00 0.00 0.00 67 1013.8
20260506031002 65 259 0.0 0.0 0.00 0.00 0.00 67 1013.8
20260506030007 65 259 0.0 2.0 0.00 0.00 0.00 66 1013.9
20260506025503 65 259 0.0 0.0 0.00 0.00 0.00 66 1014.0
20260506025004 65 259 0.0 0.0 0.00 0.00 0.00 65 1014.1
20260506024503 66 259 0.0 0.0 0.00 0.00 0.00 65 1014.1
20260506024003 66 259 0.0 0.0 0.00 0.00 0.00 65 1014.0
20260506023502 66 259 0.0 0.0 0.00 0.00 0.00 66 1014.0
20260506023004 66 259 0.0 2.0 0.00 0.00 0.00 66 1013.7
20260506022503 66 259 0.0 2.0 0.00 0.00 0.00 67 1013.7
20260506022003 66 259 0.0 0.0 0.00 0.00 0.00 64 1013.5
20260506020503 67 259 0.0 0.0 0.00 0.00 0.00 63 1013.3
20260506020006 68 259 0.0 0.0 0.00 0.00 0.00 63 1013.2
20260506015505 68 259 0.0 0.0 0.00 0.00 0.00 62 1013.2
20260506014503 68 259 0.0 0.0 0.00 0.00 0.00 62 1013.3
20260506014003 69 259 0.0 0.0 0.00 0.00 0.00 63 1013.2
20260506013504 69 259 0.0 0.0 0.00 0.00 0.00 62 1013.2
20260506013003 69 259 0.0 0.0 0.00 0.00 0.00 61 1013.5
20260506012503 69 259 0.0 0.0 0.00 0.00 0.00 59 1013.6
20260506012004 69 259 0.0 0.0 0.00 0.00 0.00 58 1013.6
20260506011503 70 259 0.0 0.0 0.00 0.00 0.00 57 1013.5
20260506011003 70 259 0.0 0.0 0.00 0.00 0.00 57 1013.6
20260506010505 70 259 0.0 0.0 0.00 0.00 0.00 55 1013.5
20260506010006 70 259 0.0 0.0 0.00 0.00 0.00 55 1013.4
20260506005503 71 259 0.0 1.0 0.00 0.00 0.00 55 1013.4
20260506005002 71 259 0.0 1.0 0.00 0.00 0.00 54 1013.3
20260506004004 71 259 0.0 1.0 0.00 0.00 0.00 53 1013.4
20260506003502 71 265 0.0 1.0 0.00 0.00 0.00 52 1013.4
20260506003003 71 217 0.0 3.0 0.00 0.00 0.00 52 1013.4
20260506002005 72 189 1.0 4.0 0.00 0.00 0.00 52 1013.4
20260506001505 72 281 0.0 3.0 0.00 0.00 0.00 51 1013.4
20260506001002 72 262 0.0 1.0 0.00 0.00 0.00 51 1013.4
20260506000503 73 262 0.0 1.0 0.00 0.00 0.00 52 1013.3
20260506000006 73 237 0.0 1.0 0.00 0.00 0.00 52 1013.2
20260505235503 73 237 0.0 2.0 0.00 0.00 0.00 51 1013.3
20260505235002 73 270 0.0 2.0 0.00 0.00 0.00 50 1013.5
20260505234504 74 169 0.0 4.0 0.00 0.00 0.00 49 1013.4
20260505234002 74 169 0.0 4.0 0.00 0.00 0.00 48 1013.4
20260505233502 74 258 0.0 2.0 0.00 0.00 0.00 48 1013.4
20260505233002 75 258 0.0 4.0 0.00 0.00 0.00 47 1013.3
20260505232004 75 205 1.0 3.0 0.00 0.00 0.00 46 1013.3
20260505231502 75 298 1.0 3.0 0.00 0.00 0.00 46 1013.4
20260505231002 76 323 1.0 6.0 0.00 0.00 0.00 45 1013.4
20260505230502 76 132 2.0 6.0 0.00 0.00 0.00 45 1013.2
20260505230007 76 198 2.0 5.0 0.00 0.00 0.00 44 1013.3
20260505225502 76 188 1.0 4.0 0.00 0.00 0.00 45 1013.3
20260505225003 76 327 2.0 7.0 0.00 0.00 0.00 44 1013.3
20260505224502 76 196 3.0 10.0 0.00 0.00 0.00 43 1013.4
20260505223004 77 257 1.0 6.0 0.00 0.00 0.00 43 1013.3
20260505222004 77 181 3.0 9.0 0.00 0.00 0.00 43 1013.3
20260505221502 77 164 3.0 10.0 0.00 0.00 0.00 42 1013.4
20260505221002 77 290 3.0 9.0 0.00 0.00 0.00 41 1013.3
20260505220502 77 219 2.0 9.0 0.00 0.00 0.00 41 1013.4
20260505220006 77 296 2.0 8.0 0.00 0.00 0.00 42 1013.3
20260505215502 77 221 2.0 8.0 0.00 0.00 0.00 41 1013.4
20260505215002 77 284 2.0 8.0 0.00 0.00 0.00 42 1013.3
20260505214504 78 315 3.0 8.0 0.00 0.00 0.00 41 1013.5
20260505214003 78 182 3.0 8.0 0.00 0.00 0.00 40 1013.4
20260505213502 78 232 2.0 8.0 0.00 0.00 0.00 41 1013.2
20260505213002 78 238 2.0 7.0 0.00 0.00 0.00 41 1013.3
20260505212004 79 134 2.0 6.0 0.00 0.00 0.00 41 1013.4
20260505211502 79 181 2.0 7.0 0.00 0.00 0.00 43 1013.5
20260505211002 79 165 2.0 9.0 0.00 0.00 0.00 43 1013.5
20260505210502 79 302 2.0 9.0 0.00 0.00 0.00 41 1013.7
20260505210006 79 223 2.0 7.0 0.00 0.00 0.00 40 1013.5
20260505205501 79 335 2.0 7.0 0.00 0.00 0.00 42 1013.6
20260505205002 80 308 2.0 5.0 0.00 0.00 0.00 40 1013.5
20260505204503 80 165 2.0 4.0 0.00 0.00 0.00 42 1013.6
20260505204001 80 136 2.0 8.0 0.00 0.00 0.00 41 1013.7
20260505203501 80 10 2.0 8.0 0.00 0.00 0.00 41 1013.8
20260505203002 80 269 1.0 3.0 0.00 0.00 0.00 41 1013.7
20260505202501 80 288 2.0 9.0 0.00 0.00 0.00 41 1014.0
20260505202002 81 293 2.0 9.0 0.00 0.00 0.00 39 1014.0
20260505201501 81 148 3.0 8.0 0.00 0.00 0.00 37 1014.0
20260505200501 81 111 2.0 9.0 0.00 0.00 0.00 40 1013.9